• In Uzbekistan
  • List of Countries
  • For 7 days
  • Water Temperature
  • Satellite Maps
  • Weather Map
  • Weather Widgets
  • user-avatar
    Login

    Hourly Weather Vlotho

    Today, 20 September, Wednesday

    Time Temperature Precipitation Wind Pressure Humidity
    00:00 +9°C° 0 mm 2 mps 753 mmHg 93%
    01:00 +9°C° 0 mm 2 mps 753 mmHg 94%
    02:00 +9°C° 0 mm 2 mps 753 mmHg 94%
    03:00 +9°C° 0 mm 2 mps 753 mmHg 94%
    04:00 +9°C° 0 mm 2 mps 753 mmHg 94%
    05:00 +9°C° 0 mm 3 mps 753 mmHg 94%
    06:00 +9°C° 0 mm 3 mps 753 mmHg 93%
    07:00 +10°C° 0 mm 3 mps 753 mmHg 93%
    08:00 +11°C° 0.1 mm 3 mps 753 mmHg 88%
    09:00 +12°C° 0.1 mm 3 mps 753 mmHg 83%
    10:00 +13°C° 0.1 mm 4 mps 753 mmHg 78%
    11:00 +14°C° 0.1 mm 4 mps 753 mmHg 75%
    12:00 +14°C° 0.1 mm 4 mps 753 mmHg 71%
    13:00 +14°C° 0 mm 3 mps 753 mmHg 72%
    14:00 +14°C° 0.1 mm 3 mps 753 mmHg 71%
    15:00 +14°C° 0.1 mm 3 mps 753 mmHg 70%
    16:00 +16°C° 0.1 mm 3 mps 753 mmHg 69%
    17:00 +15°C° 0 mm 2 mps 753 mmHg 74%
    18:00 +13°C° 0 mm 2 mps 753 mmHg 79%
    19:00 +12°C° 0 mm 1 mps 753 mmHg 85%
    20:00 +12°C° 0 mm 1 mps 754 mmHg 86%
    21:00 +11°C° 0 mm 1 mps 754 mmHg 88%
    22:00 +10°C° 0 mm 2 mps 754 mmHg 89%
    23:00 +9°C° 0 mm 2 mps 754 mmHg 89%

    Tomorrow, 21 September, Thursday

    Time Temperature Precipitation Wind Pressure Humidity
    00:00 +9°C° 0 mm 2 mps 754 mmHg 90%
    01:00 +9°C° 0 mm 2 mps 754 mmHg 90%
    02:00 +9°C° 0 mm 2 mps 754 mmHg 90%
    03:00 +8°C° 0 mm 2 mps 754 mmHg 91%
    04:00 +8°C° 0 mm 2 mps 754 mmHg 91%
    05:00 +8°C° 0 mm 2 mps 754 mmHg 90%
    06:00 +9°C° 0 mm 2 mps 754 mmHg 90%
    07:00 +9°C° 0 mm 2 mps 754 mmHg 89%
    08:00 +12°C° 0 mm 2 mps 754 mmHg 82%
    09:00 +14°C° 0 mm 2 mps 754 mmHg 75%
    10:00 +16°C° 0 mm 2 mps 755 mmHg 68%
    11:00 +18°C° 0 mm 1 mps 754 mmHg 63%
    12:00 +19°C° 0 mm 1 mps 754 mmHg 59%
    13:00 +20°C° 0 mm 1 mps 754 mmHg 55%
    14:00 +20°C° 0 mm 1 mps 754 mmHg 55%
    15:00 +20°C° 0 mm 1 mps 753 mmHg 55%
    16:00 +20°C° 0 mm 1 mps 753 mmHg 55%
    17:00 +18°C° 0 mm 1 mps 753 mmHg 60%
    18:00 +16°C° 0 mm 1 mps 753 mmHg 66%
    19:00 +14°C° 0 mm 2 mps 753 mmHg 72%
    20:00 +14°C° 0 mm 2 mps 753 mmHg 74%
    21:00 +13°C° 0 mm 2 mps 754 mmHg 76%
    22:00 +13°C° 0 mm 2 mps 754 mmHg 78%
    23:00 +12°C° 0 mm 2 mps 754 mmHg 79%

    Day after tomorrow, 22 September, Friday

    Time Temperature Precipitation Wind Pressure Humidity
    00:00 +12°C° 0 mm 2 mps 754 mmHg 80%
    01:00 +12°C° 0 mm 2 mps 754 mmHg 81%
    02:00 +10°C° 0 mm 2 mps 754 mmHg 82%
    03:00 +11°C° 0 mm 1 mps 753 mmHg 83%
    04:00 +11°C° 0 mm 1 mps 753 mmHg 83%
    05:00 +11°C° 0 mm 1 mps 753 mmHg 83%
    06:00 +11°C° 0 mm 1 mps 753 mmHg 84%
    07:00 +11°C° 0 mm 1 mps 753 mmHg 84%
    08:00 +13°C° 0 mm 1 mps 754 mmHg 77%
    09:00 +15°C° 0 mm 1 mps 754 mmHg 70%
    10:00 +18°C° 0 mm 1 mps 754 mmHg 63%
    11:00 +19°C° 0 mm 1 mps 754 mmHg 60%
    12:00 +20°C° 0 mm 1 mps 754 mmHg 57%
    13:00 +21°C° 0 mm 1 mps 753 mmHg 54%
    14:00 +21°C° 0 mm 1 mps 753 mmHg 56%
    15:00 +20°C° 0 mm 2 mps 753 mmHg 58%
    16:00 +20°C° 0 mm 2 mps 753 mmHg 60%
    17:00 +18°C° 0 mm 2 mps 754 mmHg 65%
    18:00 +18°C° 0 mm 1 mps 754 mmHg 71%
    19:00 +15°C° 0 mm 1 mps 754 mmHg 77%
    20:00 +15°C° 0 mm 1 mps 755 mmHg 80%
    21:00 +14°C° 0 mm 1 mps 755 mmHg 82%
    22:00 +13°C° 0 mm 1 mps 755 mmHg 85%
    23:00 +13°C° 0 mm 1 mps 755 mmHg 88%

    23 September, Saturday

    Time Temperature Precipitation Wind Pressure Humidity
    00:00 +12°C° 0 mm 1 mps 755 mmHg 90%
    01:00 +12°C° 0 mm 2 mps 756 mmHg 93%
    02:00 +12°C° 0 mm 2 mps 756 mmHg 94%
    03:00 +12°C° 0 mm 2 mps 756 mmHg 95%
    04:00 +12°C° 0 mm 2 mps 756 mmHg 95%
    05:00 +12°C° 0 mm 1 mps 756 mmHg 95%
    06:00 +12°C° 0 mm 1 mps 756 mmHg 95%
    07:00 +12°C° 0 mm 1 mps 756 mmHg 95%
    08:00 +13°C° 0 mm 1 mps 756 mmHg 92%
    09:00 +13°C° 0 mm 2 mps 756 mmHg 89%
    10:00 +14°C° 0 mm 2 mps 756 mmHg 86%
    11:00 +15°C° 0 mm 2 mps 756 mmHg 83%
    12:00 +16°C° 0 mm 2 mps 756 mmHg 80%
    13:00 +17°C° 0 mm 2 mps 756 mmHg 76%
    14:00 +17°C° 0 mm 2 mps 756 mmHg 75%
    15:00 +17°C° 0 mm 2 mps 755 mmHg 74%
    16:00 +17°C° 0 mm 2 mps 755 mmHg 73%
    17:00 +16°C° 0 mm 2 mps 755 mmHg 78%
    18:00 +15°C° 0 mm 1 mps 755 mmHg 82%
    19:00 +14°C° 0 mm 1 mps 755 mmHg 87%
    20:00 +14°C° 0 mm 1 mps 755 mmHg 89%
    21:00 +13°C° 0 mm 1 mps 756 mmHg 90%
    22:00 +13°C° 0 mm 1 mps 756 mmHg 92%
    23:00 +12°C° 0 mm 1 mps 756 mmHg 93%

    24 September, Sunday

    Time Temperature Precipitation Wind Pressure Humidity
    00:00 +12°C° 0 mm 1 mps 756 mmHg 94%
    01:00 +11°C° 0 mm 1 mps 755 mmHg 95%
    02:00 +10°C° 0 mm 0 mps 755 mmHg 95%
    03:00 +10°C° 0 mm 0 mps 755 mmHg 96%
    04:00 +10°C° 0 mm 0 mps 755 mmHg 96%
    05:00 +10°C° 0 mm 0 mps 755 mmHg 96%
    06:00 +10°C° 0 mm 0 mps 756 mmHg 96%
    07:00 +10°C° 0 mm 0 mps 756 mmHg 96%
    08:00 +12°C° 0 mm 0 mps 756 mmHg 90%
    09:00 +14°C° 0 mm 1 mps 756 mmHg 84%
    10:00 +16°C° 0 mm 1 mps 756 mmHg 78%
    11:00 +18°C° 0 mm 1 mps 756 mmHg 73%
    12:00 +18°C° 0 mm 2 mps 756 mmHg 68%
    13:00 +19°C° 0 mm 2 mps 756 mmHg 63%
    14:00 +20°C° 0 mm 2 mps 756 mmHg 62%
    15:00 +20°C° 0 mm 2 mps 756 mmHg 62%
    16:00 +20°C° 0 mm 2 mps 756 mmHg 61%
    17:00 +18°C° 0 mm 2 mps 756 mmHg 68%
    18:00 +17°C° 0 mm 2 mps 756 mmHg 75%
    19:00 +15°C° 0 mm 2 mps 756 mmHg 81%
    20:00 +15°C° 0 mm 2 mps 756 mmHg 83%
    21:00 +14°C° 0 mm 2 mps 756 mmHg 85%
    22:00 +13°C° 0 mm 2 mps 756 mmHg 87%
    23:00 +13°C° 0 mm 2 mps 756 mmHg 87%

    25 September, Monday

    Time Temperature Precipitation Wind Pressure Humidity
    00:00 +13°C° 0 mm 2 mps 756 mmHg 88%
    01:00 +12°C° 0 mm 2 mps 756 mmHg 89%
    02:00 +12°C° 0 mm 2 mps 756 mmHg 89%
    03:00 +10°C° 0 mm 2 mps 756 mmHg 89%
    04:00 +10°C° 0 mm 2 mps 756 mmHg 89%
    05:00 +10°C° 0 mm 2 mps 756 mmHg 88%
    06:00 +10°C° 0 mm 2 mps 756 mmHg 88%
    07:00 +10°C° 0 mm 2 mps 755 mmHg 88%
    08:00 +13°C° 0 mm 2 mps 755 mmHg 82%
    09:00 +14°C° 0 mm 3 mps 755 mmHg 76%
    10:00 +17°C° 0 mm 3 mps 755 mmHg 69%
    11:00 +18°C° 0 mm 3 mps 755 mmHg 67%
    12:00 +19°C° 0 mm 3 mps 754 mmHg 64%
    13:00 +20°C° 0 mm 3 mps 754 mmHg 61%
    14:00 +20°C° 0 mm 3 mps 754 mmHg 62%
    15:00 +20°C° 0 mm 3 mps 754 mmHg 64%
    16:00 +20°C° 0 mm 3 mps 753 mmHg 65%
    17:00 +18°C° 0 mm 3 mps 753 mmHg 72%
    18:00 +17°C° 0 mm 3 mps 754 mmHg 79%
    19:00 +15°C° 0 mm 2 mps 754 mmHg 86%
    20:00 +14°C° 0 mm 2 mps 754 mmHg 88%
    21:00 +14°C° 0 mm 2 mps 754 mmHg 91%
    22:00 +13°C° 0 mm 2 mps 754 mmHg 93%
    23:00 +13°C° 0 mm 2 mps 754 mmHg 93%
    Show more